Content
SEND FEEDBACK

Daily
Averages
Monthly
Summary
United States of America

RAPID CITY, SOUTH DAKOTA


Home > North America > United States > South Dakota
Elevation: 3162 feet     Latitude: 44 03N     Longitude: 103 04W

WEATHER
 
SELECT A DAY
Number of Records: 198,253;   Date Range: 1/1/95 - 4/23/14
 
SHARE

PRINT THIS DATA

[ ← Previous Day ]
WEATHER ALMANAC - MARCH 7, 2013
[ Next Day → ]
[ °C ]   °F
Weather ElementAverageHighLow
Temperature39.8 °F57.9 °F (1:52 pm)27 °F (5:52 am)
Dewpoint22.8 °F26.1 °F (11:52 pm)21 °F (3:52 am)
Humidity54.9 %78 % (2:52 am)24 % (1:52 pm)
Barometer29.99 in30.18 in (9:52 pm)29.81 in (2:52 am)
Wind Speed12.6 mph28.8 mph (3:52 pm)
Wind Gust34.5 mph (3:52 pm)
Weather ElementAverage
Visibility10 mi
Wind DirectionSSW (212.2 °)

Weather ElementTotal
Precipitation---
Heating Degree Days22.6 (Base 65)
Averaged from 23 records on March 7, 2013
WEATHER CONDITIONS BREAKOUT
WIND DIRECTION BREAKOUT
WEATHER BY HOUR - MARCH 7, 2013
[ °C ]   °F
Local TimeTemperatureDewpointHumidityBarometerVisibilityWind DirectionWind SpeedGust SpeedPrecipitationEventsConditions
1:52 AM28.9 °F21.9 °F75 %29.84 in10.0 miESE (120°)5.8 mphClear
2:52 AM28.0 °F21.9 °F78 %29.81 in10.0 miESE (110°)4.6 mphClear
3:52 AM28.9 °F21.0 °F72 %29.82 in10.0 miCalmClear
4:52 AM28.9 °F21.9 °F75 %29.84 in10.0 miCalmClear
5:52 AM27.0 °F21.0 °F78 %29.87 in10.0 miCalmClear
6:52 AM32.0 °F21.9 °F66 %29.88 in10.0 miNNE (30°)6.9 mphClear
7:52 AM33.8 °F23.0 °F65 %29.85 in10.0 miNorth (360°)11.5 mphClear
8:52 AM37.0 °F23.0 °F57 %29.95 in10.0 miNorth (360°)18.4 mphClear
9:52 AM43.0 °F24.1 °F47 %29.96 in10.0 miNNW (340°)17.3 mphClear
10:52 AM48.0 °F25.0 °F41 %29.97 in10.0 miNorth (360°)20.7 mph29.9 mphClear
11:52 AM53.1 °F25.0 °F34 %29.98 in10.0 miNorth (350°)20.7 mph31.1 mphClear
12:52 PM55.9 °F23.0 °F28 %29.97 in10.0 miNorth (360°)26.5 mph33.4 mphClear
1:52 PM57.9 °F21.0 °F24 %29.96 in10.0 miNorth (360°)26.5 mph32.2 mphClear
2:52 PM55.9 °F21.0 °F26 %29.99 in10.0 miNorth (10°)23.0 mph31.1 mphClear
3:52 PM54.0 °F21.0 °F28 %29.98 in10.0 miNorth (350°)28.8 mph34.5 mphClear
4:52 PM51.1 °F21.9 °F32 %30.04 in10.0 miNorth (360°)15.0 mphClear
5:52 PM43.0 °F23.0 °F45 %30.09 in10.0 miNNE (20°)9.2 mphPartly Cloudy
6:52 PM37.0 °F23.0 °F57 %30.12 in10.0 miNNE (20°)11.5 mphClear
7:52 PM33.1 °F23.0 °F66 %30.15 in10.0 miNNE (20°)11.5 mphClear
8:52 PM32.0 °F23.0 °F69 %30.16 in10.0 miNorth (360°)6.9 mphPartly Cloudy
9:52 PM35.1 °F24.1 °F64 %30.18 in10.0 miNW (310°)9.2 mphOvercast
10:52 PM35.6 °F24.8 °F65 %30.11 in10.0 miNNW (330°)8.1 mphOvercast
11:52 PM35.1 °F26.1 °F70 %30.14 in10.0 miNorth (350°)8.1 mphOvercast
Hourly data recorded from KRAP, located 0.90 miles away from Rapid City, South Dakota







STORIES FROM OUR PARTNERS